Weather in Usukhchay

Russia / Republic of Dagestan     41°25′28″N   47°55′20″E
temp.,
°C
wind,
m/s
gust,
m/s
humid.,
%
clouds,
%
prec.,
mm/h
press.,
hPa
HPBL,
m
11 april, sun
sun1100:00+8e016799 0.0 101815
03:00+7wsw01636 0.0 101811
06:00+8sw01588 0.0 101811
09:00+14ne3244100 0.0 1017483
12:00+15ene434889 0.0 1016754
15:00+14ene3254100 0.1 1014684
18:00+12sw01698 0.3 101543
21:00+11sw3367100 0.3 101526
12 april, mon
mon1200:00+10wsw4575100 1.5 101475
03:00+9sw336387 1.5 101423
06:00+9wsw2264100 0.0 101523
09:00+14ene225110 0.0 1015545
12:00+14ene64642 0.1 1015814
15:00+12ne436433 0.2 1016812
18:00+9ne22787 0.1 1019280
21:00+7w11821 0.1 102012
13 april, tue
tue1300:00+7s00811 0.0 102010
03:00+6wsw118294 0.0 102010
06:00+6wnw118316 0.0 102115
09:00+11ne327013 0.0 1020562
12:00+12ene546973 0.2 1019871
15:00+12ene436140 0.4 1018925
18:00+9ene23670 0.0 1019136
21:00+7w11714 0.0 101910
14 april, wed
wed1400:00+7w22730 0.0 101717
03:00+7wsw336936 0.0 101524
06:00+8w1265100 0.0 101415
09:00+11e2156100 0.3 1013642
12:00+10ne217094 1.6 1013485
15:00+11ene43600 3.4 1012864
18:00+7ene338236 0.6 1014181
21:00+5sw018631 1.1 101767
15 april, thu
thu1500:00+4sse11875 0.1 101710
03:00+4wsw446799 0.1 101641
06:00+5wsw44573 0.0 101653
09:00+10ene32443 0.0 1014769
12:00+12ene43501 0.0 10131118
15:00+13ene536015 0.1 1012972
18:00+9ene338224 0.1 1014210
21:00+7wsw22775 0.1 101515